{"data":{"norad_id":68060,"intl_designator":"2026-041W","name":"STARLINK-36959","alt_names":[],"object_type":"PAYLOAD","status":"ACTIVE","operator":null,"country":"US","launch_date":"2026-03-02","launch_site_code":"AFETR","launch_vehicle":null,"mission":null,"orbit_class":"UNKNOWN","rcs_meters":null,"size_class":null,"mass_kg":null,"dimensions":null,"purposes":["comms"],"wikipedia_slug":null,"has_3d_model":false,"image_url":null,"decayed_at":null,"tle_current":{"epoch":"2026-09-19T13:09:56.983680Z","epoch_age_seconds":141881,"freshness":"FRESH","line1":"1 68060U 26041W   26262.54857620  .00021748  00000+0  65289-3 0  9992","line2":"2 68060  53.1578 224.1205 0000926  91.4078 268.7031 15.34401642 31149","mean_motion":15.34401642,"eccentricity":9.26e-5,"inclination_deg":53.1578,"raan_deg":224.1205,"arg_perigee_deg":91.4078,"mean_anomaly_deg":268.7031,"bstar":0.00065289,"rev_number":3114,"period_min":93.847657652598,"perigee_km":462.0648984871,"apogee_km":463.33182119574,"semimajor_km":6840.8353598414,"source":"CELESTRAK","updated_at":"2026-09-20T09:00:43.751091Z"}}}